Location: Bolton
(53.5720°N, 2.4300°W)
Time: 19:20:36
(UTC+01:00)

X-37B - Visible Passes

Search period start: 28 September 2020 00:00
Search period end: 08 October 2020 00:00
Orbit: 386 x 387 km, 45.0° (Epoch: 18 September)

Date Brightness Start Highest point End Pass type
(mag) Time Alt. Az. Time Alt. Az. Time Alt. Az.
05 Oct 2.9 20:27:04 10° SSW 20:28:10 14° S 20:28:10 14° S visible
06 Oct 3.0 19:29:22 10° S 19:30:38 12° SSE 19:31:53 10° SE visible
06 Oct 3.5 21:04:14 10° SW 21:04:31 11° SW 21:04:31 11° SW visible
07 Oct 2.6 20:05:59 10° SW 20:08:08 17° S 20:08:32 17° SSE visible
